CAPE
0 0 0 0 0 0 0 0 0 0 0 0 0 0 0 0 0 0 0 0 0 0 0 0 0 0 0 0 0 0 0 0 0 0 0 0 0 0 0 0 0 0 0 0
0 0 0 0 0 0 0 0 0 0 0 0 0 0 0 0 0 0 0 0 0 0 0 0 0 0 0 0 0 0 0 0 0 0 0 0 0 0 0 0 0 0 0 0
0 0 0 0 0 0 0 0 0 0 0 0 0 0 0 0 0 0 0 0 0 0 0 0 0 0 0 0 0 0 0 0 0 0 0 0 0 0 0 0 0 0 0 0
0 0 0 0 0 0 0 0 0 0 0 0 0 0 0 0 0 0 0 0 0 0 0 0 0 0 0 0 0 0 0 0 0 0 0 0 0 0 0 0 0 0 0 0
0 0 0 0 0 0 0 0 0 0 0 0 0 0 0 0 0 0 0 0 0 0 0 0 0 0 0 0 0 0 0 0 0 0 0 0 0 0 0 0 0 0 0 0
0 0 0 0 0 0 0 0 0 0 0 0 0 0 0 0 0 0 0 0 0 0 0 0 0 0 0 0 0 0 0 0 0 0 0 0 0 0 0 0 0 0 0 0
0 0 0 0 0 0 0 0 0 0 0 0 0 0 0 0 0 0 0 0 0 0 0 0 0 0 0 0 0 0 0 0 0 0 0 0 0 0 0 0 0 0 0 0
0 0 0 0 0 0 0 0 0 0 0 0 0 0 0 0 0 0 0 0 0 0 0 0 0 0 0 0 0 0 0 0 0 0 0 0 0 0 0 0 0 0 0 0
0 0 0 0 0 0 0 0 0 0 0 0 0 0 0 0 0 0 0 0 0 0 0 0 0 0 0 0 0 0 0 0 0 0 0 0 0 0 0 0 0 0 0 0
0 0 0 0 0 0 0 0 0 0 0 0 0 0 0 0 0 0 0 0 0 0 0 0 0 0 0 0 0 0 0 0 0 0 0 0 0 0 0 0 0 0 0 0
0 0 0 0 0 0 0 0 0 0 0 0 0 0 0 0 0 0 0 0 0 0 0 0 0 0 0 0 0 0 0 0 0 0 0 0 0 0 0 0 0 0 0 0
0 5 13 0 0 0 0 0 0 0 0 0 0 0 0 0 0 0 0 0 0 0 0 0 0 0 0 0 0 0 0 0 0 0 0 0 0 0 0 0 0 0 0 0
1 9 2 0 0 0 0 0 0 0 0 0 0 0 0 0 0 0 0 0 0 0 0 0 0 0 0 0 0 0 0 0 0 0 0 0 0 0 0 0 0 0 0 0
0 0 1 0 0 0 0 15 0 4 7 2 3 7 0 0 0 0 0 0 0 0 0 0 0 0 0 0 0 0 0 0 0 0 0 0 0 0 0 0 0 0 0 0
0 1 5 2 9 4 1 0 0 0 0 0 0 0 0 0 1 1 0 0 0 0 0 0 0 0 0 0 0 0 0 0 0 0 0 0 0 0 0 0 0 0 0 0
0 0 0 0 0 0 0 0 0 0 0 0 0 0 0 0 0 0 0 0 0 0 0 0 0 0 0 0 0 0 0 0 0 0 0 0 0 0 0 0 0 0 0 0
0 0 0 0 0 0 0 0 0 0 0 0 0 0 0 0 0 0 0 0 0 0 0 3 0 0 0 0 0 0 0 0 0 0 0 0 0 0 0 0 0 0 0 0
0 0 0 0 0 0 0 0 0 0 0 0 0 0 0 0 0 0 0 0 0 0 0 0 0 0 0 0 0 0 0 0 0 0 0 0 0 0 0 0 0 0 0 0
0 0 0 0 0 0 0 0 0 0 0 0 0 0 0 0 0 0 0 0 0 0 0 0 0 0 0 0 0 0 0 0 0 0 0 0 0 0 0 0 0 0 0 0
0 0 1 0 0 0 0 0 0 0 0 0 0 0 0 0 0 0 0 0 0 0 0 0 0 0 0 0 0 0 0 0 0 0 0 0 0 0 0 0 0 0 0 0
0 0 0 0 0 0 0 0 0 0 0 0 0 0 0 0 0 0 0 0 0 0 0 0 0 0 0 0 0 0 0 0 0 0 0 0 0 0 0 0 0 0 0 0
0 0 0 0 0 0 0 0 0 0 0 0 0 0 0 0 0 0 0 0 0 0 0 0 0 0 0 0 0 0 0 0 0 0 0 0 0 0 0 0 0 0 0 0
0 0 0 0 0 0 0 0 0 0 0 0 0 0 0 0 0 0 0 0 0 0 0 0 0 0 0 0 0 0 0 0 0 0 0 0 0 0 0 0 0 0 0 0
0 0 0 0 0 0 0 0 0 0 0 0 0 0 0 0 0 0 0 0 0 0 0 0 0 0 0 0 0 0 0 0 0 0 0 0 0 0 0 0 0 0 0 0
0 0 0 0 0 0 0 0 0 0 0 0 0 0 0 0 0 0 0 0 0 0 0 0 0 0 0 0 0 0 0 0 0 0 0 0 0 0 0 0 0 0 0 0
0 0 0 0 0 0 0 0 0 0 0 0 0 0 0 0 0 0 0 0 0 0 0 0 0 0 0 0 0 0 0 0 0 0 0 0 0 0 0 0 0 0 0 0
CIN
0 0 0 0 0 0 0 0 0 0 0 0 0 0 0 0 0 0 0 0 0 0 0 0 0 0 0 0 0 0 0 0 0 0 0 0 0 0 0 0 0 0 0 0
0 0 0 0 0 0 0 0 0 0 0 0 0 0 0 0 0 0 0 0 0 0 0 0 0 0 0 0 0 0 0 0 0 0 0 0 0 0 0 0 0 0 0 0
0 0 0 0 0 0 0 0 0 0 0 0 0 0 0 0 0 0 0 0 0 0 0 0 0 0 0 0 0 0 0 0 0 0 0 0 0 0 0 0 0 0 0 0
0 0 0 0 0 0 0 0 0 0 0 0 0 0 0 0 0 0 0 0 0 0 0 0 0 0 0 0 0 0 0 0 0 0 0 0 0 0 0 0 0 0 0 0
0 0 0 0 0 0 0 0 0 0 0 0 0 0 0 0 0 0 0 0 0 0 0 0 0 0 0 0 0 0 0 0 0 0 0 0 0 0 0 0 0 0 0 0
0 0 0 0 0 0 0 0 0 0 0 0 0 0 0 0 0 0 0 0 0 0 0 0 0 0 0 0 0 0 0 0 0 0 0 0 0 0 0 0 0 0 0 0
0 0 0 0 0 0 0 0 0 0 0 0 0 0 0 0 0 0 0 0 0 0 0 0 0 0 0 0 0 0 0 0 0 0 0 0 0 0 0 0 0 0 0 0
0 0 0 0 0 0 0 0 0 0 0 0 0 0 0 0 0 0 0 0 0 0 0 0 0 0 0 0 0 0 0 0 0 0 0 0 0 0 0 0 0 0 0 0
0 0 0 0 0 0 0 0 0 0 0 0 0 0 0 0 0 0 0 0 0 0 0 0 0 0 0 0 0 0 0 0 0 0 0 0 0 0 0 0 0 0 0 0
0 0 0 0 0 0 0 0 0 0 0 0 0 0 0 0 0 0 0 0 0 0 0 0 0 0 0 0 0 0 0 0 0 0 0 0 0 0 0 0 0 0 0 0
0 0 0 0 0 0 0 0 0 0 0 0 0 0 0 0 0 0 0 0 0 0 0 0 0 0 0 0 0 0 0 0 0 0 0 0 0 0 0 0 0 0 0 0
0 -9 -5 0 0 0 0 0 0 0 0 0 0 0 0 0 0 0 0 0 0 0 0 0 0 0 0 0 0 0 0 0 0 0 0 0 0 0 0 0 0 0 0 0
-4 -4 -18 0 0 0 0 0 0 0 0 0 0 0 0 0 0 0 0 0 0 0 0 0 0 0 0 0 0 0 0 0 0 0 0 0 0 0 0 0 0 0 0 0
0 -2 0 -3 0 0 0 -51 0 -2 -3 -3 -6 -10 0 0 0 0 0 0 0 0 0 0 0 0 0 0 0 0 0 0 0 0 0 0 0 0 0 0 0 0 0 0
-1 -1 -1 -2 -2 -10 -4 0 0 0 0 0 0 0 0 0 0 0 0 0 0 0 0 0 0 0 0 0 0 0 0 0 0 0 0 0 0 0 0 0 0 0 0 0
0 0 0 0 0 0 0 0 0 0 0 0 0 0 0 0 0 0 0 0 0 0 0 0 0 0 0 0 0 0 0 0 0 0 0 0 0 0 0 0 0 0 0 0
0 0 0 0 0 -1 0 0 0 0 0 0 0 0 0 0 0 0 0 0 0 0 0 -2 0 0 0 0 0 0 0 0 0 0 0 0 0 0 0 0 0 0 0 0
0 0 0 0 0 0 0 0 0 0 0 0 0 0 0 0 0 0 0 0 0 0 0 0 0 0 0 0 0 0 0 0 0 0 0 0 0 0 0 0 0 0 0 0
0 0 0 -1 0 0 0 0 0 0 0 0 0 0 0 0 0 0 0 0 0 0 0 0 0 0 0 0 0 0 0 0 0 0 0 0 0 0 0 0 0 0 0 0
0 0 0 0 0 0 0 0 0 0 0 0 0 0 0 0 0 0 0 0 0 0 0 0 0 0 0 0 0 0 0 0 0 0 0 0 0 0 0 0 0 0 0 0
0 0 0 0 0 0 0 0 0 0 0 0 0 0 0 0 0 0 0 0 0 0 0 0 0 0 0 0 0 0 0 0 0 0 0 0 0 0 0 0 0 0 0 0
0 0 0 0 0 0 0 0 0 0 0 0 0 0 0 0 0 0 0 0 0 0 0 0 0 0 0 0 0 0 0 0 0 0 0 0 0 0 0 0 0 0 0 0
0 0 0 0 0 0 0 0 0 0 0 0 0 0 0 0 0 0 0 0 0 0 0 0 0 0 0 0 0 0 0 0 0 0 0 0 0 0 0 0 0 0 0 0
0 0 0 0 0 0 0 0 0 0 0 0 0 0 0 0 0 0 0 0 0 0 0 0 0 0 0 0 0 0 0 0 0 0 0 0 0 0 0 0 0 0 0 0
0 0 0 0 0 0 0 0 0 0 0 0 0 0 0 0 0 0 0 0 0 0 0 0 0 0 0 0 0 0 0 0 0 0 0 0 0 0 0 0 0 0 0 0
0 0 0 0 0 0 0 0 0 0 0 0 0 0 0 0 0 0 0 0 0 0 0 0 0 0 0 0 0 0 0 0 0 0 0 0 0 0 0 0 0 0 0 0
Wind_Speed
25 28 27 26 27 32 35 37 38 41 38 43 40 35 31 27 25 38 38 25 24 23 35 39 37 32 28 24 21 19 19 19 19 20 20 22 22 22 22 23 21 21 20 19
30 33 28 33 32 34 36 40 43 48 41 39 45 37 51 28 26 22 27 36 29 47 44 41 34 27 24 22 19 19 19 19 20 21 22 23 20 21 21 21 21 21 20 20
32 34 30 29 32 35 36 37 41 43 46 42 50 58 38 30 26 19 17 18 27 19 29 40 37 33 29 24 19 16 18 19 19 19 19 22 19 22 21 21 22 22 22 21
32 32 32 30 32 31 40 35 40 44 46 46 36 63 35 33 29 39 31 29 25 32 36 41 42 37 32 28 18 15 15 16 16 16 18 20 23 23 23 22 22 22 22 21
34 32 31 32 32 28 37 32 35 37 40 45 37 41 46 37 37 33 29 25 35 42 39 46 43 41 34 26 21 17 14 15 17 17 18 20 22 25 23 22 23 23 23 22
34 30 31 32 33 30 33 35 35 36 35 47 39 37 70 34 29 24 41 49 41 42 46 44 40 39 37 31 25 17 15 14 15 17 19 21 22 22 23 23 23 24 23 21
35 35 34 33 39 33 31 34 44 44 41 48 35 38 43 41 49 48 48 47 41 39 39 42 42 42 40 32 26 20 17 16 16 18 20 21 22 22 21 20 20 21 22 23
48 60 35 29 34 37 32 32 39 51 53 55 41 52 56 49 53 55 50 42 32 33 37 41 42 41 37 29 21 18 17 19 17 17 18 19 21 22 21 20 19 20 21 22
47 56 37 33 32 32 37 40 39 48 49 54 55 54 56 60 48 40 34 32 36 40 39 44 42 38 33 28 24 19 17 17 18 19 18 16 16 19 22 20 21 23 22 22
44 57 47 42 35 36 37 36 48 43 55 61 50 56 56 62 64 51 46 47 49 46 43 40 38 37 33 31 28 26 26 27 26 23 21 23 24 23 22 24 25 26 26 26
38 43 49 41 45 47 43 46 44 46 48 62 68 62 51 56 56 47 45 46 44 42 41 41 39 36 34 33 33 33 32 34 35 34 33 34 33 31 29 28 28 28 29 29
41 47 56 57 41 42 48 52 50 55 61 57 59 60 40 43 48 46 44 44 44 44 45 43 39 37 36 36 36 37 37 37 40 41 41 41 40 39 37 37 35 32 32 31
34 39 53 53 50 39 42 42 42 46 45 54 60 55 39 43 43 46 48 49 48 46 46 45 44 43 41 40 40 40 41 41 41 44 47 47 46 44 41 39 39 37 36 35
34 41 51 64 56 52 54 48 45 47 57 59 58 60 50 50 50 50 47 47 50 50 49 48 47 46 45 45 44 45 45 45 47 48 48 51 47 43 42 42 41 39 37 38
38 57 54 56 52 48 49 51 54 56 54 57 59 60 50 49 50 47 43 46 47 49 49 49 50 50 50 50 49 48 48 50 50 49 50 51 48 46 44 43 40 40 37 37
34 46 47 56 55 53 60 56 54 56 59 56 54 53 41 41 44 46 45 44 47 49 48 48 49 49 52 52 53 54 53 53 52 51 51 50 49 47 51 48 44 41 40 39
42 46 52 66 55 53 63 57 56 56 53 50 57 45 40 44 44 46 44 41 48 49 50 48 50 50 52 51 51 53 53 52 52 53 51 52 51 51 51 50 46 44 43 40
48 50 50 62 57 71 54 40 38 41 37 35 37 39 42 43 43 44 35 45 49 50 50 50 50 50 51 53 52 52 52 54 53 54 54 53 53 53 52 50 48 47 44 43
42 48 52 56 57 57 54 44 43 46 47 37 41 44 44 42 43 38 42 45 49 51 50 52 53 54 55 56 54 55 56 56 55 55 57 57 56 56 53 51 49 46 46 47
33 34 42 44 55 60 45 38 35 36 57 35 41 45 43 44 58 57 51 50 52 51 50 53 53 53 54 55 55 57 57 57 57 56 58 57 55 55 54 49 47 43 42 47
44 41 47 51 54 51 37 38 35 51 47 42 42 44 42 45 45 51 53 52 51 52 55 54 54 57 58 55 56 60 59 61 60 59 60 59 55 54 52 49 45 42 39 38
42 43 45 42 50 57 31 35 41 42 47 45 47 45 42 44 48 50 52 53 51 54 56 55 57 59 59 58 59 63 65 62 61 63 62 60 58 54 52 49 47 41 38 36
42 38 42 38 44 40 40 45 46 42 47 47 44 42 41 46 50 50 52 53 53 54 55 54 56 60 61 59 58 65 66 65 66 66 66 63 60 58 54 52 48 43 38 38
39 36 45 47 45 42 43 44 42 45 45 44 42 41 42 48 48 51 52 54 56 57 57 56 59 62 66 64 63 64 66 65 67 69 69 67 64 62 57 51 48 46 43 39
36 33 38 43 43 43 44 43 41 41 41 40 40 41 43 45 49 50 54 56 58 58 60 59 61 65 70 69 70 68 67 66 69 70 69 69 65 63 62 57 53 51 47 42
32 35 37 43 42 42 44 44 39 38 39 40 42 45 44 45 50 51 55 55 56 60 62 64 67 68 71 71 73 69 66 66 68 70 68 65 64 62 62 60 57 50 48 44
Wind_Direction
303 296 293 292 293 300 303 302 301 305 309 307 302 291 296 297 289 267 267 283 287 274 267 312 308 306 303 296 287 269 262 257 254 253 252 261 247 249 251 252 245 244 247 247
301 291 294 302 302 299 299 301 301 303 307 307 307 286 303 291 275 282 265 265 300 286 288 284 318 319 314 304 290 279 268 262 255 257 257 269 255 260 253 251 247 246 243 243
289 298 306 301 301 300 300 301 302 303 308 307 307 297 310 318 319 303 300 305 327 333 300 312 320 319 318 316 305 286 271 266 262 263 261 272 271 275 260 254 251 245 241 241
300 304 301 301 299 301 298 302 302 304 306 306 314 280 310 318 320 312 314 321 330 327 325 320 318 319 318 315 311 301 288 273 262 253 254 253 260 261 258 252 252 244 238 235
301 306 305 302 303 304 300 306 303 303 301 303 305 304 306 316 317 316 316 330 325 323 325 318 317 317 316 317 314 303 290 279 271 259 254 254 259 266 269 261 255 250 247 242
297 303 301 303 304 300 306 304 302 302 300 293 297 298 280 309 318 321 315 314 323 323 325 327 329 326 318 315 313 307 295 285 279 270 267 263 264 266 264 262 256 253 249 239
301 299 302 303 301 302 298 299 297 295 293 290 303 292 287 297 301 305 311 314 318 325 332 334 333 332 329 322 315 310 298 293 288 279 275 271 269 263 259 255 253 246 246 246
297 294 300 303 298 298 294 291 289 292 292 293 295 287 287 296 300 303 308 310 318 326 333 337 336 337 335 331 327 316 303 297 292 284 278 274 272 270 266 262 257 250 247 245
295 291 301 299 301 298 296 288 294 291 290 290 288 289 292 294 301 313 317 318 322 320 322 325 328 331 338 338 330 326 317 310 301 293 284 273 265 269 271 266 261 259 258 255
296 290 293 295 294 291 291 298 291 292 291 289 290 288 291 294 295 305 307 308 311 313 317 321 326 327 329 332 330 325 316 311 307 299 291 283 278 274 273 271 267 263 260 257
297 293 290 295 288 288 292 289 289 292 287 289 290 289 292 294 298 309 312 310 313 318 319 320 321 324 325 324 323 319 314 311 304 296 289 284 283 281 280 276 271 267 264 258
294 295 289 287 290 293 291 289 288 285 289 286 289 288 296 302 306 313 314 314 312 312 313 316 316 317 318 320 318 317 314 313 303 294 290 287 284 283 282 279 277 270 264 260
304 293 290 293 296 299 293 294 295 294 293 288 289 293 303 308 307 309 309 309 310 309 309 310 311 311 312 314 314 312 312 316 312 301 290 288 285 286 284 281 277 273 267 263
299 291 288 287 291 295 292 292 295 294 290 293 291 296 298 303 304 306 307 310 310 310 308 307 307 308 307 307 310 310 308 309 307 304 299 289 290 290 289 285 279 273 267 267
293 287 289 288 292 295 294 293 291 288 290 291 295 296 300 302 304 307 308 310 310 309 310 309 307 306 305 305 305 307 307 305 305 306 303 302 298 295 291 286 282 275 270 267
297 291 295 291 292 294 292 291 289 290 291 292 292 294 303 305 307 306 306 305 306 309 308 309 310 309 308 307 305 302 302 305 306 307 307 308 307 302 290 287 283 277 274 270
292 292 292 288 294 295 288 288 290 290 292 293 291 295 303 305 306 309 307 306 306 307 306 309 308 306 305 306 306 305 305 308 308 306 308 309 308 305 298 291 284 278 274 272
289 289 290 289 293 286 293 301 301 298 299 301 300 300 303 303 306 309 308 308 307 307 305 306 308 305 304 307 305 306 307 308 306 304 303 307 307 304 302 298 289 283 277 273
280 284 288 286 285 290 292 296 299 298 296 300 301 302 303 305 306 307 311 311 309 307 306 305 303 301 303 303 306 306 309 305 305 307 302 303 303 302 301 300 297 289 280 274
294 281 282 288 287 288 295 303 306 304 294 300 305 303 302 305 300 302 309 310 308 307 307 306 304 302 303 305 306 306 305 304 304 305 302 301 302 302 301 301 299 295 286 277
288 288 282 284 287 291 297 304 307 295 299 307 309 306 302 302 304 309 310 309 308 307 306 306 304 302 302 303 304 302 302 300 301 301 300 299 301 300 301 298 295 294 291 286
289 289 288 291 289 290 303 307 299 303 305 306 307 305 301 303 306 309 310 309 309 308 308 306 304 302 302 303 302 300 298 300 299 298 298 300 299 297 296 293 291 291 291 288
289 289 293 291 291 299 302 300 302 307 306 305 306 307 306 306 308 309 309 309 309 309 308 308 306 304 303 303 302 298 298 299 298 297 296 295 294 292 290 287 286 286 287 285
292 294 291 295 295 298 300 301 303 305 306 306 308 308 309 307 309 309 310 310 310 309 308 308 307 304 302 303 302 300 300 299 296 293 292 290 289 287 286 285 282 281 281 280
295 299 298 294 297 301 301 302 305 306 308 309 311 311 311 312 311 311 311 310 310 309 308 308 306 305 302 302 300 300 300 298 294 292 290 288 287 285 281 279 279 277 277 275
295 292 294 296 302 302 303 306 311 310 311 312 312 312 313 314 313 313 312 312 312 311 310 308 307 305 304 303 301 300 299 297 293 290 289 287 283 283 279 278 276 277 275 274